GFSSGP_850_spd_114.txt.gz
Wind_Speed
5 4 4 3 6 6 7 3 3 5 3 2 1 6 9 10 4 7 14 19 24 15 26 27 24 22 20 19 18 17 18 20 21 21 20 18 17 17 16 15 14 14 14 13 12 11 11 12 12
6 6 4 3 7 10 7 5 8 4 1 4 6 3 9 3 3 14 15 20 18 14 27 28 26 23 21 21 19 17 18 19 20 21 20 18 17 17 16 15 14 14 13 13 13 12 12 11 11
8 9 7 4 8 11 10 3 6 1 1 2 3 5 4 4 9 13 18 19 10 15 25 30 27 24 23 21 19 18 18 19 20 21 20 19 18 18 16 15 14 14 14 14 13 12 12 11 10
6 6 4 8 14 9 9 2 2 2 2 2 6 9 2 5 10 17 21 13 6 15 21 28 27 25 24 22 20 18 18 18 19 20 21 20 20 18 16 15 14 14 14 14 13 13 12 11 10
7 5 8 11 15 13 11 8 6 8 7 10 9 6 6 1 14 18 21 11 3 14 18 27 27 26 25 23 21 20 18 18 18 18 19 20 19 18 17 15 15 14 14 14 13 13 12 11 10
8 5 8 12 15 13 15 10 10 12 11 10 9 9 6 1 19 20 20 12 6 13 19 26 29 27 26 24 22 20 19 18 18 18 19 19 19 18 17 16 15 15 15 13 13 12 12 11 11
14 8 14 14 12 11 13 3 7 8 11 10 3 9 8 5 19 17 18 17 8 16 20 25 30 30 27 24 22 21 20 19 18 19 19 19 18 18 17 16 16 15 14 13 13 13 12 12 12
9 6 12 10 12 17 10 10 9 10 6 4 5 5 5 15 18 15 16 15 12 12 19 24 31 31 29 27 24 22 21 20 19 19 19 19 19 18 18 17 17 15 14 14 14 13 13 13 12
6 7 12 14 12 12 6 9 7 5 11 10 8 11 16 19 18 16 13 11 9 10 21 27 29 31 30 26 27 24 22 21 21 20 21 20 21 21 20 20 18 16 15 14 13 13 13 13 13
11 11 12 7 11 12 11 14 14 11 15 16 19 16 15 16 15 15 14 12 10 10 19 29 30 31 32 24 24 27 26 25 24 24 24 24 20 19 19 21 20 18 16 15 14 13 14 15 15
6 13 10 10 14 12 14 17 19 19 17 18 17 20 17 15 14 13 12 12 10 9 12 25 30 30 31 26 26 24 23 23 26 26 25 25 22 22 22 19 22 21 20 19 17 17 18 17 13
10 13 13 11 10 13 15 17 19 18 22 19 17 18 15 13 12 12 12 9 9 7 9 14 22 29 31 32 31 31 26 30 29 29 27 24 27 23 22 20 19 20 20 18 20 18 18 17 16
13 11 11 14 14 15 17 18 20 23 21 18 9 8 10 11 11 11 12 10 8 7 6 11 16 22 28 32 33 33 33 26 32 32 32 30 30 31 27 22 21 20 20 21 20 19 21 20 19
2 7 12 13 17 18 18 19 16 10 4 5 4 7 11 13 13 15 13 13 12 10 9 12 13 18 22 29 33 34 35 32 33 34 34 34 31 29 32 27 23 23 23 22 22 20 20 20 18
8 12 13 15 13 8 7 12 12 11 6 8 11 13 14 15 16 16 17 18 17 15 13 14 16 17 21 24 29 35 37 37 35 35 35 35 35 32 33 33 28 25 24 25 26 23 21 20 21
9 7 10 6 4 5 5 13 4 8 8 15 20 20 19 18 16 16 17 17 18 19 18 16 18 21 23 25 27 30 34 37 39 38 36 35 35 36 34 35 35 31 28 29 26 27 25 21 22
7 13 8 7 3 6 6 11 4 11 17 21 20 24 22 17 18 18 17 18 19 18 20 20 22 24 25 25 27 29 31 32 31 36 36 35 36 37 36 33 37 37 37 33 29 26 29 24 25
12 9 10 11 5 13 19 21 17 10 19 21 23 25 18 20 17 17 20 17 17 19 21 25 24 24 25 26 25 25 27 29 30 29 32 36 38 39 38 29 32 37 39 37 37 32 29 26 27
11 13 16 14 12 15 17 19 18 22 22 24 23 18 17 17 15 13 13 15 18 18 21 22 26 23 21 21 27 28 32 32 33 34 37 38 40 37 38 36 36 37 39 41 39 38 34 31 28
13 15 16 12 6 12 20 29 21 20 11 8 13 11 13 16 17 16 17 17 17 19 20 20 21 22 20 18 22 29 30 31 35 36 38 39 38 38 38 39 39 41 41 42 41 42 40 36 35
13 14 13 14 15 17 21 27 8 12 2 2 4 11 14 17 21 23 23 22 22 21 21 22 23 22 23 23 21 25 29 31 32 36 40 40 43 44 42 42 42 42 42 42 43 42 42 41 39
15 9 10 11 11 12 9 15 19 12 8 2 9 14 18 21 23 24 26 25 23 24 24 25 27 28 26 25 23 25 32 36 38 33 39 47 50 49 49 46 44 40 41 42 43 43 43 41 41
11 5 10 12 15 16 19 10 17 12 7 7 10 16 19 21 24 25 26 26 26 24 25 26 28 31 30 26 25 26 31 37 34 33 32 39 50 55 55 50 47 42 40 41 43 43 43 42 42
8 12 16 14 12 12 21 16 16 4 4 5 11 16 20 23 24 25 25 25 24 24 25 27 29 32 32 35 32 29 32 36 37 35 34 35 45 54 55 54 50 45 42 42 42 42 41 42 42
10 8 6 8 8 10 3 6 14 10 3 5 10 14 17 21 24 27 27 28 26 26 27 27 27 30 29 32 34 36 32 37 40 37 36 32 39 44 52 54 52 48 45 41 39 38 41 40 40
8 7 7 10 9 10 8 8 0 6 7 9 11 16 19 22 24 26 27 28 27 26 26 27 27 28 26 26 28 33 40 33 41 38 34 34 37 40 43 52 53 49 44 38 36 35 37 38 36
5 9 11 16 16 13 11 10 6 5 8 15 19 20 22 24 27 28 28 27 27 28 26 25 25 24 21 21 22 26 35 28 38 36 34 33 35 36 38 46 48 48 45 41 35 39 38 34 31
13 2 4 8 5 8 7 11 3 9 13 14 16 20 24 26 28 29 28 28 27 27 23 20 18 17 17 16 15 22 27 29 31 32 36 32 31 30 33 36 39 43 42 40 39 40 37 33 32
7 11 10 7 8 4 5 2 6 8 9 13 16 20 22 25 28 31 31 31 30 28 24 21 16 18 13 10 8 9 22 27 23 29 31 28 27 27 30 28 31 37 41 41 41 38 33 33 30
12 10 12 9 6 6 6 6 7 7 8 13 16 20 21 23 26 30 32 34 35 32 31 26 22 21 17 12 6 7 17 20 19 21 24 26 26 27 28 28 27 33 35 36 34 30 28 31 28

GFSSGP_850_spd_117.txt.gz
Wind_Speed
5 3 3 6 7 7 14 12 5 4 7 4 6 7 11 12 7 4 12 12 14 5 19 22 24 20 18 16 15 14 14 16 17 19 19 16 13 13 13 12 11 11 11 11 10 10 9 8 8
2 6 7 11 8 12 12 10 8 6 9 2 6 5 9 2 2 9 13 21 14 4 14 26 27 22 20 18 16 15 15 16 18 19 19 17 14 13 13 12 11 10 11 10 9 9 9 9 9
7 9 14 5 13 14 13 8 7 9 2 5 4 2 7 4 5 10 17 17 10 4 13 23 27 24 21 19 18 17 16 17 18 19 19 17 15 14 14 12 11 10 10 11 10 9 10 9 8
6 7 12 11 18 13 12 3 4 2 6 3 2 8 3 2 5 11 17 15 6 4 11 20 26 24 22 20 19 18 17 17 18 19 19 17 16 16 15 13 12 11 11 11 11 10 10 9 8
9 12 12 16 18 19 13 10 3 10 8 8 9 12 5 7 6 12 15 13 5 4 12 19 24 24 23 22 21 19 17 17 18 19 19 19 18 17 16 14 13 12 12 12 11 10 10 9 8
13 9 13 14 17 15 10 12 10 13 13 12 11 14 11 3 7 12 14 13 5 5 12 17 23 26 24 22 21 19 18 18 18 19 20 20 19 18 17 15 14 13 13 12 12 11 10 9 8
17 12 16 18 18 17 5 5 8 10 12 8 3 6 8 6 7 12 12 12 7 5 11 16 22 27 25 23 21 19 18 18 18 18 19 20 20 19 18 16 15 15 14 13 13 12 11 10 9
18 13 21 18 15 16 12 8 8 11 12 5 5 7 11 8 13 13 12 11 8 3 11 16 18 27 27 25 23 21 20 19 19 18 18 19 20 20 19 18 16 16 15 14 13 13 12 11 10
10 12 14 17 16 15 12 5 13 6 11 14 9 12 14 19 16 15 12 9 7 12 11 17 18 24 21 22 26 23 21 20 19 19 19 20 20 21 21 19 18 17 16 15 14 14 13 12 12
12 12 20 14 15 12 15 15 15 15 15 15 15 16 13 15 15 14 13 11 10 9 10 17 20 23 20 19 19 25 24 24 23 23 23 23 21 18 18 18 20 18 17 15 15 15 14 14 14
14 16 20 18 11 16 18 18 18 18 17 19 17 15 16 14 14 14 14 12 10 8 9 13 19 22 29 22 19 19 19 21 24 24 22 25 19 19 20 18 22 21 20 19 18 18 18 17 12
17 19 18 21 17 15 14 18 18 21 21 21 17 16 14 14 12 11 10 11 10 8 6 12 15 19 25 30 24 22 20 20 21 22 25 22 21 23 20 21 18 22 20 20 19 18 19 16 17
14 17 21 17 18 18 18 19 20 24 24 21 19 12 11 11 11 11 11 12 9 7 6 5 11 16 19 24 27 32 30 27 24 22 24 25 23 23 22 22 20 21 19 21 21 20 18 20 20
18 15 18 18 19 19 19 21 23 24 14 11 10 10 9 10 11 13 13 12 10 10 9 8 10 13 18 21 23 26 29 25 27 26 29 30 26 29 23 23 22 20 21 24 21 22 23 24 21
13 18 18 20 20 16 7 16 23 21 15 11 11 12 10 13 14 15 14 13 13 13 12 11 11 14 16 20 21 26 23 27 27 25 30 35 33 25 28 31 24 22 22 23 22 22 24 23 20
18 19 18 16 4 10 7 15 17 5 9 13 13 16 17 17 16 14 13 14 14 13 12 12 11 13 15 18 19 22 24 28 29 29 30 31 35 35 30 30 33 24 23 23 27 25 23 25 23
16 17 19 14 14 7 11 15 10 8 13 17 21 22 20 18 14 14 12 13 14 13 13 13 13 14 16 19 21 23 24 26 29 31 31 32 35 38 37 30 34 33 25 27 29 29 28 27 22
18 17 16 12 11 13 16 21 19 24 25 17 23 22 19 18 10 11 13 14 14 15 16 16 15 14 14 18 24 24 25 27 31 32 34 32 33 37 40 32 32 35 36 34 29 32 29 26 24
16 18 21 21 17 20 19 22 21 21 27 27 25 24 18 7 10 13 16 17 18 17 18 17 16 15 15 14 17 23 29 30 31 34 34 35 35 35 35 33 32 35 38 43 38 31 32 31 26
16 20 22 22 20 11 19 24 23 24 29 26 13 5 7 11 15 16 17 18 18 19 20 20 19 17 15 15 16 20 27 32 35 35 37 39 36 37 38 37 37 37 37 39 42 40 35 34 31
17 19 20 21 19 21 22 30 23 15 5 9 6 3 6 11 16 19 20 21 21 21 21 22 22 20 19 17 19 21 25 32 30 40 41 39 41 40 42 41 42 42 41 37 41 42 43 39 37
20 14 17 14 15 17 20 21 26 22 24 12 8 5 9 14 17 20 23 24 24 24 22 21 23 22 20 19 19 21 24 28 33 36 36 41 41 45 45 44 42 43 45 40 38 41 45 42 41
16 12 10 16 18 20 30 14 26 19 13 14 6 9 13 16 20 23 24 26 27 25 25 25 24 23 21 21 21 22 24 27 30 30 39 39 41 43 47 48 46 45 44 43 39 40 44 47 44
12 11 16 18 17 17 25 21 22 5 9 7 7 11 15 20 23 24 25 27 28 27 27 26 26 24 22 21 23 25 26 28 29 31 30 40 41 45 48 49 47 48 45 41 40 40 40 44 44
11 13 11 13 12 16 20 12 8 9 10 11 13 19 21 21 24 27 29 30 30 30 30 28 26 27 25 25 26 28 30 30 30 33 40 31 39 40 47 49 49 51 48 45 42 40 39 41 42
15 14 12 19 15 17 21 9 4 11 11 12 12 14 17 21 24 26 28 28 28 28 29 30 29 28 27 28 31 31 34 35 34 35 40 38 37 41 42 44 48 49 49 52 47 41 39 39 40
7 14 12 17 18 16 17 20 12 9 11 14 15 16 19 21 23 25 26 26 28 28 29 28 30 28 27 29 31 31 32 36 39 35 33 45 36 38 38 40 40 47 46 47 49 45 40 39 38
14 10 6 7 6 12 11 14 3 9 11 13 14 17 20 22 23 25 27 28 28 29 29 26 22 24 24 23 24 26 28 32 36 31 33 40 41 35 37 35 35 40 45 45 47 43 41 40 38
12 12 13 13 11 9 10 2 4 6 8 11 15 20 20 22 24 28 31 28 29 28 29 27 23 20 19 17 15 16 21 25 30 30 33 38 40 37 32 33 32 36 42 45 43 43 42 40 39
14 16 15 11 13 7 13 7 5 5 6 11 15 17 18 21 24 27 31 32 36 36 32 31 29 23 22 14 12 14 8 4 15 21 27 32 32 30 29 29 28 27 34 38 39 40 39 40 38

GFSSGP_850_spd_120.txt.gz
Wind_Speed
4 2 5 11 6 7 14 17 19 7 3 13 10 8 10 9 8 5 10 17 11 5 10 14 19 19 17 16 15 14 14 14 14 13 15 13 10 9 8 8 7 8 8 7 8 8 7 6 6
5 4 8 9 8 10 13 15 4 15 15 8 2 4 6 2 9 8 18 21 14 2 12 15 20 22 19 17 15 14 14 14 14 14 16 14 11 10 9 9 8 7 8 8 7 8 7 7 6
6 3 9 5 11 13 15 11 13 14 10 4 1 3 5 4 9 7 14 16 11 2 10 13 23 24 19 17 16 15 14 15 15 16 16 14 11 11 10 10 9 8 8 7 6 7 7 7 7
1 6 9 6 16 19 18 11 9 4 7 3 3 6 2 6 5 6 12 14 10 2 10 11 23 23 20 18 16 14 14 14 15 15 16 15 13 12 12 10 9 9 8 8 7 6 7 6 5
8 9 10 12 16 19 17 21 2 3 8 9 7 11 8 10 7 6 10 13 8 2 10 11 14 22 21 19 17 15 14 15 15 15 15 15 14 13 13 11 10 9 9 9 8 7 7 6 5
11 12 10 12 16 17 12 9 13 11 10 14 14 9 7 10 6 8 8 12 9 3 9 11 13 19 21 19 17 16 15 15 15 15 15 15 14 14 13 12 11 10 10 10 9 9 8 7 6
14 10 16 18 17 17 18 8 3 9 16 12 13 3 2 8 10 10 9 7 9 3 7 11 13 18 23 21 19 17 16 16 16 16 15 15 15 15 15 13 13 12 11 11 10 9 9 8 7
15 10 20 17 15 16 14 11 11 7 10 7 6 5 8 12 12 11 9 11 11 12 9 14 16 17 26 24 22 20 18 17 17 16 17 16 16 17 16 15 14 14 13 13 12 11 10 10 9
12 8 12 17 17 11 20 12 6 9 6 14 13 14 16 21 13 13 11 9 8 12 11 16 17 15 25 25 24 23 21 19 18 18 18 18 19 20 19 18 16 15 15 14 13 13 12 12 11
10 10 16 14 14 13 15 15 15 17 18 18 17 15 13 11 15 13 14 12 11 10 16 13 18 16 19 24 27 25 24 23 22 21 20 20 21 21 21 20 19 18 17 16 15 14 14 14 14
16 15 16 19 22 16 14 17 17 17 14 16 19 18 18 16 13 15 15 15 12 11 10 15 14 19 22 21 23 24 28 27 27 26 24 23 22 18 18 17 19 20 20 19 18 18 17 16 15
16 21 22 20 18 16 15 17 19 19 19 20 21 20 12 11 14 12 15 12 12 9 12 13 13 14 22 26 23 25 25 30 30 29 27 27 26 23 21 20 20 21 23 22 21 21 19 18 14
14 16 19 21 22 15 18 18 18 24 25 20 23 21 9 11 10 11 12 13 11 10 7 9 12 11 14 23 25 20 21 23 24 27 28 28 27 26 27 22 23 20 20 20 22 20 20 20 19
22 24 21 21 22 24 19 19 21 26 25 24 11 12 11 8 9 10 12 13 12 9 9 10 12 11 15 19 23 29 27 23 23 23 24 28 27 27 29 26 26 23 19 19 20 21 20 18 20
14 17 18 21 25 22 23 15 15 31 22 16 9 12 12 10 10 12 12 10 10 10 11 12 10 14 14 15 20 26 28 31 24 29 25 26 30 27 28 26 30 26 21 23 22 22 23 20 23
19 19 19 19 18 4 5 14 17 3 2 8 11 15 11 13 15 13 7 4 4 10 10 7 6 7 9 14 16 21 26 27 30 26 30 36 34 34 34 33 31 28 24 27 27 24 26 24 25
15 17 20 19 9 6 10 13 15 20 10 12 16 17 20 18 12 4 9 9 7 12 14 13 12 11 15 16 17 19 23 25 29 35 30 34 35 38 34 33 37 35 29 30 29 27 30 27 27
17 18 20 19 11 9 16 17 17 20 21 22 24 18 17 20 1 9 13 16 17 17 19 19 17 17 18 19 20 24 22 27 30 31 38 32 37 35 46 35 37 39 36 33 31 32 30 30 26
20 21 21 19 19 19 20 21 21 19 23 24 23 26 26 19 8 9 13 16 19 20 21 21 22 20 19 18 16 14 18 26 29 32 32 39 35 39 36 48 39 40 45 42 34 37 33 34 29
21 19 20 21 21 19 21 20 20 18 22 31 32 16 16 12 13 14 16 17 19 20 23 24 23 23 22 19 19 24 27 27 23 32 37 38 39 40 39 39 47 47 44 46 40 39 37 36 33
20 18 19 22 21 20 18 23 20 23 26 22 11 15 16 14 15 17 19 19 19 20 23 23 24 24 24 23 24 25 33 33 32 29 28 40 40 40 42 43 42 47 48 45 49 49 44 38 37
20 17 21 22 16 15 18 17 20 22 21 21 23 19 14 15 17 19 20 21 22 23 22 23 24 26 26 24 23 22 25 30 32 29 31 30 40 42 44 46 45 43 45 46 44 44 45 43 40
21 15 14 16 15 16 28 13 17 21 18 13 15 14 15 18 19 19 21 22 23 24 25 24 26 28 27 24 25 25 28 32 34 38 35 32 27 44 46 46 47 47 46 47 51 45 41 44 44
10 11 15 15 14 14 23 17 17 4 10 12 11 14 14 15 17 18 21 23 24 26 28 28 28 27 28 29 29 29 28 32 35 38 43 41 31 31 48 47 49 48 51 50 39 41 41 42 43
13 9 8 8 10 14 19 16 13 14 11 12 11 13 14 15 17 21 25 28 29 31 32 31 31 32 31 29 30 33 33 32 34 36 38 42 46 32 40 46 51 53 55 51 46 48 47 42 43
15 12 8 16 14 17 20 14 6 14 17 15 13 12 15 20 23 25 28 31 31 32 33 34 33 33 33 29 29 32 34 35 35 37 39 42 43 45 37 45 47 53 55 50 52 52 48 43 43
7 11 14 17 14 13 12 19 11 14 13 15 16 19 23 24 25 27 28 30 32 33 32 33 33 32 31 29 28 29 31 33 35 39 41 43 45 49 43 40 48 49 52 50 49 50 49 45 44
11 11 10 5 8 13 9 5 3 8 11 12 14 16 16 18 20 24 29 29 31 32 31 30 29 28 26 23 22 23 23 26 30 35 41 44 45 47 40 39 41 47 45 48 47 50 47 46 45
11 12 11 11 10 10 13 3 3 4 6 8 11 14 17 21 23 26 29 28 31 34 35 31 29 28 23 19 19 17 19 22 26 28 34 43 42 45 37 36 43 44 29 40 41 48 49 46 44
16 15 15 9 10 11 10 5 6 3 4 9 11 14 18 21 22 25 28 30 33 36 38 33 33 31 28 24 17 14 13 11 10 13 13 23 27 34 34 36 40 48 41 41 37 40 51 46 41

GFSSGP_850_spd_123.txt.gz
Wind_Speed
2 3 6 7 3 3 4 9 2 12 6 14 11 10 6 10 3 6 3 14 11 8 6 11 14 15 14 14 13 13 12 12 13 12 13 13 10 9 9 8 8 8 8 7 7 7 6 6 6
3 2 4 4 3 1 5 9 7 6 6 8 9 9 7 3 16 10 2 10 10 8 4 9 15 17 16 15 14 13 13 12 13 12 13 13 10 9 8 8 7 7 7 7 6 6 5 5 5
4 1 2 3 3 5 4 3 5 8 12 9 6 8 4 6 10 7 4 6 10 6 8 5 13 19 18 16 15 14 13 13 13 13 13 12 9 9 9 8 7 7 7 7 6 6 6 6 6
3 0 5 1 7 10 8 14 3 5 13 12 12 4 8 6 7 7 8 11 5 1 6 8 10 20 19 17 15 15 13 13 14 13 14 13 10 9 9 9 8 7 7 7 6 7 7 7 6
3 5 1 3 8 9 9 16 2 2 4 6 7 2 10 15 13 13 13 13 2 3 5 8 9 21 21 19 16 15 14 14 14 15 15 14 11 10 10 9 8 7 7 7 7 6 7 7 5
5 3 1 5 9 7 6 7 8 11 17 18 10 3 11 11 7 9 11 14 10 2 3 7 9 13 20 20 18 17 15 15 15 15 15 14 12 11 11 11 9 8 7 8 8 8 8 7 6
4 2 5 7 8 11 9 7 7 8 11 10 8 4 11 11 7 5 9 13 14 8 9 7 9 10 17 21 20 19 17 17 16 16 16 15 14 13 13 12 11 10 9 9 9 8 8 8 7
13 2 7 5 7 10 8 14 21 20 6 8 11 4 3 9 7 4 2 9 14 11 11 13 14 15 16 23 23 21 19 18 18 18 18 18 16 15 14 14 12 11 10 11 11 10 9 9 8
16 1 3 7 5 6 19 9 16 15 15 9 6 6 12 10 11 8 2 1 10 15 14 18 15 14 14 24 25 24 22 21 21 22 21 21 20 19 18 16 14 13 13 13 12 12 11 10 10
4 2 6 9 6 5 15 13 16 10 17 15 15 14 13 13 15 11 10 10 7 16 15 13 15 13 16 22 26 25 24 24 24 24 24 24 23 22 21 19 18 16 16 15 14 14 13 12 12
9 6 8 20 27 21 9 14 16 12 5 10 15 19 19 16 10 10 12 7 10 13 10 9 11 11 15 17 25 27 28 27 27 26 25 24 24 24 24 23 22 21 20 20 18 17 15 14 13
5 18 19 22 24 19 8 11 12 13 17 21 20 18 18 10 11 7 9 9 10 10 13 12 11 11 10 20 21 22 26 29 28 28 27 26 27 27 26 27 26 25 24 22 21 19 17 15 15
6 6 18 25 18 17 15 10 10 16 24 24 24 17 18 8 1 5 7 9 10 10 6 10 15 18 15 10 25 23 26 28 29 30 30 29 29 29 28 26 27 25 24 25 24 21 20 18 17
11 19 19 24 21 22 15 14 15 15 27 27 20 21 10 4 5 7 9 10 4 1 4 4 3 3 9 12 17 27 26 25 25 29 32 32 31 32 31 29 27 25 24 21 25 23 21 19 20
15 10 10 15 22 13 23 10 9 21 24 30 18 9 7 8 4 3 0 8 4 3 3 6 6 5 6 5 10 12 24 32 30 31 27 28 32 34 34 33 30 28 25 21 21 22 21 20 18
7 6 4 12 16 27 13 7 3 20 5 3 10 6 10 3 3 1 5 4 2 4 10 7 7 7 10 9 8 9 17 22 30 35 30 33 30 31 34 35 33 31 31 27 23 23 22 23 21
6 5 9 11 13 4 4 4 9 15 11 12 13 13 15 10 4 6 4 1 3 6 9 12 14 14 16 17 16 18 18 18 22 28 36 36 37 33 34 35 34 36 33 30 29 28 27 25 25
5 7 9 9 5 6 5 8 7 18 21 17 10 15 24 17 19 15 12 11 10 12 15 17 21 25 25 27 27 26 26 24 19 24 30 35 37 35 40 36 35 35 38 35 35 33 33 29 28
13 11 10 8 8 13 10 15 7 12 16 15 17 11 22 21 18 17 15 13 13 16 19 21 25 28 30 32 32 31 34 31 26 22 27 32 33 39 43 37 38 41 45 41 38 36 35 35 31
8 8 10 11 8 8 11 15 9 6 11 19 16 19 23 22 20 17 16 15 17 19 20 21 23 27 28 29 33 31 33 36 35 31 25 32 35 38 41 37 44 47 48 50 43 42 42 39 37
7 6 8 14 6 5 8 11 9 9 15 23 28 25 26 25 23 21 20 20 20 22 24 25 25 27 30 31 34 37 36 37 40 39 36 28 23 34 41 45 52 45 53 50 56 48 46 46 43
5 6 11 10 7 5 5 7 12 15 5 15 20 25 25 24 21 20 22 23 23 25 28 29 31 30 30 33 34 34 35 37 37 39 44 40 31 22 36 46 48 51 54 59 55 58 54 50 48
4 6 5 5 7 6 19 1 10 13 9 10 16 22 25 24 24 24 25 27 29 30 34 34 33 33 33 32 33 36 37 40 41 42 43 47 44 36 26 33 48 49 50 53 55 53 63 56 53
6 4 7 6 1 6 18 7 3 3 4 9 16 21 23 24 27 29 30 32 34 34 33 33 34 34 33 33 33 33 35 40 44 44 43 44 48 48 40 26 31 47 49 48 49 56 59 60 50
2 3 3 4 1 8 8 8 3 10 12 12 12 18 21 23 28 31 29 35 33 34 34 33 33 35 35 34 32 32 34 36 41 45 45 42 43 47 50 42 30 36 47 51 52 53 51 42 46
6 5 3 4 3 9 11 4 6 12 16 16 18 19 20 24 26 24 29 29 31 32 32 33 32 34 34 32 31 30 31 33 34 37 40 41 40 43 46 46 44 35 37 45 47 50 48 41 43
1 2 1 2 9 9 4 6 6 9 11 13 14 15 18 23 25 27 30 28 28 31 32 32 32 32 30 28 26 25 25 26 28 29 32 37 40 39 42 45 43 43 38 43 43 48 45 43 44
6 3 3 3 4 7 4 2 3 4 7 9 12 14 15 20 23 25 28 28 29 31 33 31 29 28 28 25 20 19 19 20 22 23 27 32 36 39 40 43 46 42 40 39 41 45 46 42 45
3 2 4 6 4 3 2 5 4 3 2 5 9 12 16 21 23 24 27 27 28 31 34 30 29 30 30 25 20 18 15 14 18 21 24 28 32 33 34 37 38 42 36 32 38 43 39 36 46
6 6 6 4 6 5 6 5 4 5 2 8 7 9 11 15 19 23 25 26 30 32 36 31 30 31 31 30 28 21 13 11 11 8 9 8 17 25 25 25 26 30 33 33 42 42 48 51 45

GFSSGP_850_spd_126.txt.gz
Wind_Speed
1 1 3 2 4 5 3 6 3 3 2 1 3 12 9 2 4 5 10 4 5 5 4 9 12 15 13 12 12 12 11 12 13 12 11 10 8 7 7 6 7 8 10 10 10 10 9 7 7
1 1 2 2 4 3 5 5 3 2 3 1 7 9 9 3 15 9 6 3 4 4 0 7 13 17 16 14 14 13 13 12 13 13 13 12 9 8 8 7 7 7 7 8 9 8 8 8 9
3 1 2 3 3 5 4 3 4 6 3 3 2 7 5 3 10 6 6 4 7 4 4 1 8 15 17 16 15 15 14 14 14 14 14 13 10 9 9 8 7 7 7 7 7 8 8 9 11
3 2 1 3 6 5 4 9 9 5 4 4 5 7 9 7 6 7 7 6 4 5 3 1 4 11 18 18 17 16 16 15 15 15 15 15 12 11 10 9 7 7 7 7 7 8 8 10 10
4 2 3 2 5 5 6 16 6 4 2 6 4 4 9 17 13 9 9 11 9 5 2 2 7 9 19 19 17 17 17 17 17 16 17 17 14 12 12 11 10 9 8 7 7 8 9 10 9
4 2 2 3 5 5 8 15 7 7 9 6 8 6 4 10 3 7 7 11 11 6 4 4 7 6 14 18 18 18 18 18 18 18 19 19 16 14 14 13 13 12 10 9 9 9 10 10 9
4 3 3 3 5 6 5 14 12 6 7 9 6 5 6 7 7 4 1 5 8 8 8 6 6 8 8 17 18 19 19 19 19 20 21 20 19 17 16 16 15 13 13 11 10 10 11 11 10
3 4 3 3 3 5 8 12 18 15 6 6 8 3 2 7 5 3 5 1 4 6 9 9 7 6 11 14 20 21 21 20 21 21 21 22 21 20 19 18 17 16 14 13 13 12 12 12 12
3 2 2 4 1 4 12 6 10 10 12 8 8 11 8 5 2 2 2 5 6 10 8 11 8 5 8 13 20 24 24 23 22 23 23 23 24 23 22 22 20 19 17 16 15 15 14 14 14
4 4 7 6 4 6 11 7 5 5 15 10 19 13 17 2 4 3 2 8 9 10 10 8 8 8 9 11 16 26 26 26 26 26 26 27 27 26 25 23 22 21 20 19 18 17 17 16 15
3 5 6 15 23 15 6 10 7 4 0 7 14 21 20 15 15 10 9 9 8 5 7 7 9 9 9 12 12 23 27 28 29 28 29 30 29 28 28 27 26 25 24 22 21 20 20 18 18
4 8 6 9 10 9 6 8 7 6 13 18 18 19 19 17 10 7 6 4 6 8 6 6 7 8 10 12 16 17 26 29 31 31 31 31 32 32 32 31 30 29 28 26 24 23 21 20 19
5 3 14 15 14 17 12 9 10 15 20 20 20 19 13 9 5 5 4 3 3 3 3 9 8 8 9 11 13 18 22 28 29 31 31 33 34 34 33 33 32 31 30 29 28 26 24 23 22
8 16 15 17 24 17 8 9 6 19 25 23 24 18 14 8 8 8 4 1 1 7 5 5 9 9 11 11 12 15 19 24 28 30 33 35 35 36 36 35 34 33 32 31 30 28 27 25 24
12 6 8 17 12 9 8 4 8 28 27 13 11 3 5 5 4 7 8 6 4 3 3 5 6 8 10 13 14 17 17 19 21 24 31 36 39 39 38 37 36 35 35 32 29 29 28 27 27
6 3 1 6 1 9 7 6 9 14 8 4 2 10 8 19 17 12 7 4 2 2 6 7 8 10 12 14 15 15 18 19 23 26 27 31 41 35 38 40 40 39 34 32 31 28 29 30 29
3 3 4 7 5 2 3 3 6 14 4 6 8 12 19 20 18 16 11 7 5 5 8 11 14 15 17 20 23 23 23 25 25 23 25 27 26 46 39 43 42 38 36 33 34 31 31 32 33
4 3 3 5 6 3 2 3 6 12 13 10 9 15 20 21 19 13 11 9 9 10 12 14 17 20 20 21 27 33 35 35 36 35 30 25 25 25 46 49 39 38 36 37 38 37 34 33 33
6 9 9 6 6 6 7 2 2 6 18 22 22 24 23 19 14 14 13 13 15 15 18 20 21 23 26 27 30 37 44 47 44 42 41 33 28 33 33 29 41 51 35 41 44 39 36 38 38
10 13 11 5 4 5 5 11 4 10 12 22 22 23 19 16 16 19 20 19 20 23 24 25 24 26 28 31 30 31 38 44 45 40 39 39 36 30 30 26 26 52 47 43 42 40 39 41 41
12 10 5 3 4 4 4 9 1 11 21 24 23 19 19 20 23 26 28 29 28 28 29 30 30 29 29 31 34 35 35 41 46 43 40 42 41 38 30 29 23 31 52 49 48 45 41 39 43
4 3 0 3 5 3 4 6 6 9 12 14 16 20 20 23 24 28 31 33 35 33 31 31 31 32 31 29 33 34 37 40 43 47 44 41 43 43 38 32 25 24 32 50 50 46 44 48 50
3 1 3 2 2 4 2 2 6 9 7 8 12 14 18 21 25 28 30 32 32 33 33 33 31 31 31 32 30 35 36 38 41 45 47 45 43 44 43 39 33 27 30 38 48 51 56 52 57
4 4 6 3 3 4 4 6 5 4 2 5 9 14 16 22 27 27 28 29 30 30 31 32 33 31 31 31 31 31 34 34 37 40 44 46 45 43 44 42 40 36 30 35 41 47 54 52 53
3 5 3 4 1 6 3 3 1 5 7 8 8 11 15 22 26 28 31 31 31 32 34 33 34 34 33 33 32 30 30 31 32 34 38 41 43 42 41 40 40 42 39 37 37 41 50 57 57
5 8 5 6 3 4 7 5 3 6 9 10 9 10 16 23 25 27 28 29 30 31 31 31 33 33 33 33 31 28 26 26 27 29 30 34 37 39 35 36 38 39 41 41 36 34 36 46 50
1 1 4 1 0 3 4 2 4 6 4 6 8 9 16 23 25 25 25 25 25 27 28 29 29 29 30 29 28 26 24 23 24 25 25 27 29 31 31 32 35 37 37 40 43 38 33 37 40
5 4 1 2 4 8 4 4 4 5 1 3 6 11 15 19 22 23 23 23 24 25 26 27 26 27 27 26 26 25 23 21 20 22 23 24 24 25 30 31 32 34 36 37 38 40 37 37 36
2 1 1 3 4 4 3 5 4 7 4 3 5 8 12 17 19 20 21 22 23 23 25 27 27 28 28 27 27 25 22 18 15 17 15 17 19 19 24 22 23 28 31 32 33 37 34 34 30
3 4 5 5 6 4 6 9 2 6 7 7 5 6 8 12 14 17 19 21 24 25 26 28 28 28 27 26 28 29 25 19 16 14 12 9 9 9 11 16 19 23 29 32 31 34 30 33 31

GFSSGP_850_spd_129.txt.gz
Wind_Speed
2 3 5 2 4 5 3 4 3 6 5 3 6 10 9 6 2 2 5 3 3 2 6 11 13 13 14 14 13 14 14 13 13 13 12 11 10 9 8 8 9 10 11 11 11 10 9 7 7
1 2 3 3 5 3 4 4 3 4 8 3 7 8 8 3 7 5 2 4 4 6 3 7 11 13 13 12 13 13 13 14 14 15 14 12 10 9 9 9 9 11 11 11 11 10 9 8 9
1 1 3 4 4 3 3 4 6 23 19 5 4 10 4 3 6 4 2 4 4 3 5 5 6 11 13 13 13 13 14 15 15 15 15 14 12 11 11 11 10 10 11 11 11 11 9 9 10
2 2 5 4 3 4 3 8 11 5 5 5 7 6 5 2 2 5 5 3 3 2 4 4 4 4 11 15 15 14 14 15 16 16 16 16 14 13 13 12 12 11 11 11 11 11 10 11 12
3 4 4 4 2 4 5 14 11 6 6 16 3 3 5 11 7 5 6 6 5 4 4 1 4 7 10 17 17 16 15 16 17 17 17 18 16 15 15 14 13 13 12 12 11 12 13 14 13
4 4 4 1 1 6 6 11 16 9 13 12 9 5 2 5 3 3 5 7 7 7 5 2 4 6 8 15 18 18 17 17 17 18 18 18 18 16 15 15 15 14 14 13 13 14 14 14 14
5 4 4 2 2 3 4 12 8 8 13 15 1 3 2 3 1 1 4 6 5 5 8 8 6 8 5 11 15 16 18 19 19 19 19 20 19 18 17 17 16 16 15 15 15 15 16 16 15
3 4 3 2 2 3 2 7 7 9 6 10 8 4 2 2 3 4 6 6 7 9 7 5 5 6 6 8 13 17 18 19 20 21 21 21 21 20 19 19 18 17 17 16 16 17 17 17 17
1 4 1 3 2 3 2 3 4 2 6 6 6 9 6 4 6 8 9 10 10 7 7 7 5 4 6 8 10 16 20 20 21 22 22 22 24 24 22 22 20 19 18 17 18 18 18 18 18
3 3 8 5 3 5 2 3 6 1 3 0 9 7 9 4 6 7 7 8 6 4 0 4 6 6 7 10 11 12 20 22 22 23 24 24 25 25 25 23 22 22 21 20 19 19 19 20 20
1 4 4 6 13 12 7 4 2 4 0 5 10 16 14 8 9 6 4 2 3 3 3 5 4 6 8 9 11 9 12 21 23 24 24 26 26 26 26 26 25 26 24 24 23 23 23 22 22
4 6 7 7 7 5 5 9 4 6 4 7 10 13 13 13 6 2 2 4 2 5 2 5 7 8 10 12 12 14 13 16 22 24 25 26 27 28 29 29 29 30 29 28 27 26 25 24 23
3 4 16 16 21 16 12 8 7 14 17 12 11 14 12 4 3 9 11 10 8 3 3 4 6 10 11 11 13 16 16 19 20 23 24 26 28 30 31 32 33 33 33 32 31 29 28 27 25
8 10 18 16 20 17 6 5 2 23 17 14 13 10 7 9 13 12 10 9 7 6 3 4 7 9 11 12 13 14 16 18 24 24 22 23 27 30 31 34 35 36 37 36 34 32 31 29 27
7 7 9 9 8 4 4 4 4 15 14 9 5 17 20 19 14 14 10 7 5 3 2 4 7 9 10 12 13 15 16 16 18 24 31 26 25 26 31 34 36 37 38 38 37 35 34 32 30
5 3 3 5 7 3 3 5 5 15 9 6 21 21 21 20 17 12 9 6 4 5 7 8 9 10 13 15 16 17 18 19 20 20 21 25 33 35 27 38 39 35 34 41 40 38 38 36 35
4 3 3 8 6 4 4 3 9 14 13 15 20 18 17 16 13 11 10 10 11 12 14 16 16 15 15 16 20 19 19 20 23 25 25 26 27 29 36 33 38 35 31 41 42 41 40 38 38
3 2 3 4 7 5 1 3 7 15 19 21 22 18 15 12 13 12 13 14 16 16 18 19 21 23 22 21 21 24 26 25 25 27 29 30 30 32 31 31 29 51 67 35 42 44 43 41 36
3 4 6 7 12 5 3 4 1 12 22 18 18 16 14 13 12 14 17 19 20 21 22 23 24 25 26 29 29 28 29 34 34 36 36 33 33 33 34 29 26 36 51 55 31 43 43 42 39
6 6 9 7 9 4 3 3 6 7 9 14 14 13 13 14 19 21 22 22 22 23 24 25 27 27 28 30 30 32 35 35 38 41 42 39 35 35 35 30 29 28 36 57 58 41 38 38 42
6 5 5 8 3 4 3 3 4 5 12 12 13 12 14 19 23 26 28 28 27 27 27 28 29 30 31 32 35 34 35 40 38 39 45 42 37 33 37 35 33 27 30 35 55 50 45 39 42
6 5 4 1 3 3 2 5 6 5 6 7 8 12 15 18 21 24 27 29 30 31 31 31 30 28 29 29 31 35 37 40 42 40 39 45 39 36 34 38 33 33 30 31 40 66 60 44 41
7 5 4 4 2 1 1 2 0 5 1 2 4 6 12 17 22 25 26 28 28 29 30 32 32 32 32 31 31 34 38 37 39 40 39 40 41 38 35 34 35 34 34 30 24 49 73 51 56
3 2 4 4 2 5 4 7 3 4 4 2 2 6 12 18 22 23 25 27 29 31 33 33 32 32 31 31 30 31 33 35 36 37 37 34 36 36 34 32 33 33 35 33 31 24 50 59 51
4 5 3 4 2 5 3 1 7 6 4 4 5 1 9 17 21 24 28 30 32 34 34 32 32 33 33 32 32 30 31 31 31 32 32 32 33 34 32 29 28 29 33 36 35 36 41 42 39
5 8 5 5 4 5 3 5 4 5 10 8 6 2 8 16 19 22 25 27 29 30 30 30 31 32 32 31 30 29 28 27 26 26 27 29 29 28 26 25 25 26 27 32 37 40 39 36 36
3 2 2 1 1 1 4 3 3 6 5 6 6 1 8 14 18 21 22 24 26 26 26 25 28 28 28 28 27 26 26 25 23 22 23 26 25 24 24 23 26 24 23 25 30 37 39 38 39
4 5 3 2 3 9 6 6 5 9 10 6 3 1 6 12 15 17 19 21 22 23 23 23 25 27 26 24 23 22 23 23 20 20 21 20 21 21 21 21 23 18 18 20 23 26 31 37 36
1 1 2 2 3 5 13 7 6 9 8 7 5 2 7 12 14 15 16 17 20 21 22 23 25 27 27 25 22 22 26 21 17 15 13 13 13 14 13 12 11 6 11 14 19 21 22 27 29
2 5 5 3 5 5 4 16 3 4 8 10 6 2 5 9 11 13 14 16 19 21 23 25 25 27 27 25 21 21 25 23 19 18 16 17 16 14 12 10 7 5 7 11 15 19 20 19 20

GFSSGP_850_spd_132.txt.gz
Wind_Speed
4 2 2 2 4 5 2 2 3 6 8 11 6 5 8 4 3 3 6 1 2 3 9 15 16 15 15 15 14 13 12 10 9 9 8 8 7 8 8 10 11 11 12 12 12 11 9 7 6
2 2 2 4 5 3 4 4 6 5 8 9 2 8 5 2 3 5 4 2 2 2 7 12 13 12 13 13 13 13 13 12 12 10 10 9 7 7 8 10 10 11 11 12 12 11 9 8 8
1 2 2 4 4 3 2 5 9 14 11 1 5 8 5 2 4 3 3 4 4 2 4 7 9 10 10 11 12 13 13 14 14 13 12 11 10 8 8 9 10 10 11 11 12 11 10 9 10
1 2 6 4 3 3 4 6 7 10 9 14 7 6 6 5 4 6 9 9 8 4 3 3 4 5 8 11 12 13 13 14 15 15 14 13 12 10 9 9 10 10 10 11 12 11 11 11 12
3 3 4 4 1 3 4 7 11 7 5 11 2 2 4 8 7 6 7 9 8 6 2 1 1 4 8 11 13 12 13 14 15 16 16 16 15 12 12 11 11 11 11 12 12 11 11 12 13
3 3 4 3 3 3 6 7 5 9 14 15 7 4 3 3 2 4 5 7 8 8 7 5 4 5 6 8 11 12 13 14 16 16 17 17 17 15 14 14 13 12 12 12 12 12 12 13 14
5 3 3 5 3 2 2 8 6 4 10 12 4 3 2 4 6 6 8 8 6 7 6 5 5 7 6 5 7 11 13 14 16 17 18 19 18 18 16 16 15 14 13 13 12 12 13 14 15
3 4 3 3 3 3 3 6 9 8 2 3 4 3 1 3 4 5 5 4 4 6 5 3 5 6 5 5 6 9 14 15 16 17 19 19 20 19 18 17 17 15 14 14 14 14 14 15 15
3 4 1 2 5 3 3 7 6 5 4 3 4 3 1 4 4 5 6 5 4 6 6 4 2 4 5 5 6 7 11 16 17 18 18 20 22 22 20 19 19 18 17 16 16 16 16 17 17
5 3 5 3 1 3 6 3 7 3 3 1 2 5 6 2 7 7 7 4 3 3 4 7 7 8 8 8 8 10 10 12 16 18 19 20 22 23 22 21 20 20 20 19 18 18 18 19 20
2 3 2 4 5 11 2 4 3 3 1 6 7 8 4 9 8 6 1 2 4 4 2 6 6 8 9 11 9 12 13 12 15 17 17 20 22 22 23 23 23 23 24 24 22 22 23 22 22
2 3 2 5 8 11 3 7 5 7 12 7 10 6 2 4 10 10 10 9 7 6 5 3 4 7 8 8 10 11 13 13 15 18 20 18 20 23 24 25 26 27 27 27 26 25 24 24 24
2 3 11 14 16 13 14 11 7 15 19 16 5 2 13 17 16 14 11 9 7 5 4 2 2 5 7 7 8 9 12 14 14 16 21 23 21 21 22 25 27 29 30 31 30 29 28 27 27
4 6 15 10 15 8 4 5 3 9 12 7 8 17 18 17 14 12 9 6 4 3 1 2 4 5 7 9 10 11 11 13 14 14 17 20 24 26 24 24 26 29 32 34 34 33 31 30 29
4 5 7 4 1 1 3 3 2 18 11 19 20 19 18 16 11 12 10 8 7 7 8 8 8 10 11 11 12 13 14 15 15 16 16 15 17 17 23 24 30 27 33 36 35 34 33 33 32
3 4 3 4 6 4 2 4 4 15 16 20 18 16 15 13 12 11 11 11 12 13 14 15 14 14 15 16 16 17 17 17 17 17 18 18 19 20 21 22 26 41 30 41 35 32 33 33 35
5 2 2 6 6 3 7 5 6 12 16 18 15 12 11 9 8 11 14 16 17 18 19 20 21 21 19 18 20 21 20 19 19 20 22 22 21 23 26 27 23 27 41 43 21 26 27 31 36
2 1 0 2 4 7 4 8 6 13 16 16 13 10 9 9 12 14 16 17 18 19 21 22 23 24 24 23 22 21 23 24 23 23 24 25 26 26 26 28 26 25 34 39 32 44 24 29 35
2 1 3 5 9 1 7 6 3 7 13 13 11 10 9 11 13 15 17 19 19 20 22 25 26 27 28 30 31 27 26 28 29 30 30 32 31 30 29 30 31 27 30 32 25 39 55 46 38
3 2 6 6 6 6 7 4 2 3 4 5 7 8 10 12 15 17 19 20 21 22 23 23 25 27 29 31 32 34 37 33 31 33 35 35 36 35 35 33 34 31 31 31 34 28 39 64 65
3 4 4 7 3 3 2 4 5 2 7 5 6 7 10 15 19 21 22 24 25 27 29 29 28 28 28 30 33 34 35 38 37 34 34 34 37 37 35 34 34 36 30 33 31 31 36 44 54
3 6 7 5 1 3 1 6 5 5 3 1 1 5 10 14 17 21 24 25 27 28 28 29 29 29 30 28 30 32 34 37 38 38 38 37 31 35 34 33 32 35 34 34 37 33 33 45 54
7 2 1 1 1 2 2 1 2 5 5 5 3 3 7 13 19 22 24 25 26 29 31 31 30 31 30 29 28 30 32 33 36 37 36 35 35 30 30 30 28 32 35 34 38 37 27 43 59
4 3 5 4 2 4 6 7 3 5 5 3 5 3 6 13 18 20 22 26 28 30 31 31 31 31 31 30 29 29 28 29 31 32 32 32 31 27 27 28 27 28 33 33 35 39 37 32 48
4 5 3 3 1 5 3 2 8 5 3 5 8 4 5 12 17 21 23 27 28 30 30 30 31 31 31 31 30 28 26 26 27 28 27 27 27 26 25 25 24 26 28 32 33 37 35 33 40
5 7 5 5 3 5 2 6 5 4 6 6 5 3 6 11 14 18 20 23 25 27 28 29 30 32 32 32 30 27 24 24 25 25 24 23 23 24 24 25 24 22 24 27 29 35 41 40 37
4 3 4 2 1 1 4 6 2 4 5 9 9 6 5 8 12 15 16 19 22 24 25 27 28 30 31 29 27 25 22 23 23 22 20 19 19 20 20 22 23 22 25 24 24 27 33 40 42
4 5 3 2 2 5 6 6 9 7 11 8 10 9 4 6 9 11 13 16 18 20 22 24 26 29 31 30 25 23 21 23 19 17 15 14 15 15 14 14 14 16 14 13 16 19 24 30 35
2 1 3 3 3 3 7 8 6 6 7 13 11 9 4 4 6 9 11 13 16 18 21 24 26 29 31 29 25 22 21 21 18 16 16 14 16 15 12 11 7 4 4 6 9 12 14 17 22
1 5 5 4 5 4 1 12 2 1 4 12 12 10 5 2 5 7 9 11 14 17 19 22 25 26 27 27 26 22 22 21 22 22 21 22 23 24 20 17 13 8 3 3 7 9 11 11 12

GFSSGP_850_spd_138.txt.gz
Wind_Speed
4 1 2 3 5 6 6 6 2 2 2 8 2 4 11 12 8 6 5 10 9 5 7 8 7 6 6 7 7 7 7 7 9 11 10 8 6 5 9 9 9 9 9 10 11 11 10 8 6
2 1 2 4 6 7 7 3 4 3 1 2 3 1 5 10 12 12 4 10 8 7 5 7 6 6 6 7 7 8 8 9 9 11 12 12 10 8 6 8 9 9 9 10 11 11 9 8 7
2 1 5 3 3 4 6 5 5 7 3 4 3 6 4 8 12 7 9 9 9 9 6 4 3 4 6 7 8 8 10 11 11 12 13 14 13 12 10 9 9 10 9 10 10 11 10 9 9
2 2 3 6 4 7 5 6 5 8 9 4 5 8 10 9 6 8 9 10 10 11 9 5 3 4 5 6 8 9 10 11 12 13 13 15 14 14 13 11 10 10 10 11 11 11 11 11 11
1 3 4 5 6 6 5 6 6 4 5 6 4 8 13 10 10 10 11 11 12 10 8 5 3 2 3 6 8 10 11 11 12 14 14 15 16 16 15 13 12 11 11 12 13 13 13 13 12
5 3 6 8 6 7 5 6 4 7 6 7 10 13 11 9 8 8 6 6 7 9 9 7 4 2 3 6 7 9 11 12 12 13 15 16 17 17 16 15 14 13 13 14 14 14 14 15 14
5 5 2 3 9 8 4 2 6 4 5 9 4 8 11 11 8 5 5 5 5 5 5 5 3 4 4 5 6 8 10 12 13 13 15 16 18 19 18 18 17 16 16 15 14 15 16 16 16
2 4 4 3 9 6 4 3 3 5 7 4 4 4 8 6 3 3 3 3 2 3 4 4 4 5 5 6 7 7 8 11 13 14 16 15 18 21 22 21 21 19 18 17 16 16 17 17 17
2 5 5 5 8 7 2 2 4 3 2 7 7 9 7 6 5 3 2 1 1 1 3 4 6 7 6 5 6 7 7 6 8 14 16 18 18 19 23 25 24 22 20 19 19 18 18 18 19
4 6 2 3 3 2 0 3 3 1 1 7 12 10 8 7 5 3 3 2 3 3 3 5 7 9 8 7 7 8 9 9 11 10 11 16 19 20 22 20 23 23 22 22 21 20 19 20 17
1 2 4 4 0 5 5 6 1 2 4 7 5 7 7 5 4 5 5 5 4 4 3 4 5 7 7 6 7 8 9 12 14 13 12 11 13 17 21 23 24 23 25 24 23 24 24 20 18
4 2 2 3 2 5 6 6 5 7 5 5 7 7 8 9 8 9 7 7 6 6 6 7 7 8 8 8 8 9 9 10 11 12 12 14 15 13 16 19 22 23 23 24 24 24 23 22 21
3 1 4 4 9 9 6 6 1 7 5 5 7 8 9 9 9 7 6 6 6 7 9 10 11 11 11 12 12 12 13 14 14 14 14 15 15 17 17 18 18 21 25 27 27 28 28 27 24
0 4 7 6 7 3 5 5 8 5 6 7 8 10 10 10 9 7 6 6 7 9 11 13 14 15 16 15 15 16 16 17 19 19 19 19 19 19 19 18 19 19 22 24 26 27 27 31 30
2 6 5 2 2 3 3 9 5 7 7 8 9 10 10 10 9 8 7 9 10 12 14 17 18 19 19 19 19 18 18 20 21 21 21 23 23 23 23 21 17 19 22 22 25 18 16 23 31
5 4 6 5 4 2 4 5 7 7 7 8 8 8 8 8 9 8 9 10 11 13 15 17 19 20 22 23 24 25 23 22 22 22 25 25 25 26 27 26 25 22 23 20 22 23 25 37 39
5 6 4 5 3 1 2 2 8 7 8 8 7 6 5 5 6 6 8 9 10 12 13 14 16 18 20 21 22 24 26 25 25 24 25 27 27 29 29 28 29 30 28 27 23 18 24 26 21
3 6 6 7 3 5 10 12 9 7 9 9 8 6 5 3 3 5 7 9 11 13 15 16 19 21 22 23 24 24 22 24 27 27 28 29 29 30 29 30 31 32 31 30 27 30 25 25 26
4 5 9 7 3 7 10 11 10 10 10 10 8 6 4 2 2 4 7 9 11 13 16 19 21 23 25 24 26 26 25 26 25 26 29 30 31 30 31 31 31 31 31 31 28 25 27 30 25
6 8 10 8 7 5 11 12 6 11 10 9 8 7 4 2 1 5 7 9 12 14 16 18 21 22 24 23 25 24 24 24 26 25 26 29 29 31 30 30 31 30 29 30 29 28 25 25 22
10 11 7 8 6 13 10 18 14 8 9 9 9 7 5 3 1 4 7 9 11 14 17 21 22 23 23 26 24 24 24 21 20 21 23 22 27 29 29 28 28 30 29 28 27 24 24 26 25
11 7 9 9 6 6 3 7 6 12 9 12 11 11 8 4 2 4 7 9 12 15 17 22 23 23 24 26 24 23 22 23 23 23 24 26 26 27 27 27 26 27 25 25 26 24 24 24 29
4 4 5 5 8 8 13 7 4 8 10 10 14 13 10 5 1 3 6 9 11 14 17 20 21 20 22 24 24 22 21 22 22 22 24 25 23 23 23 22 24 27 26 24 22 24 23 24 27
10 6 5 5 8 9 13 11 8 5 2 5 6 11 9 5 1 3 5 8 10 13 16 18 19 20 23 26 26 21 21 22 23 23 23 21 23 21 20 20 22 22 24 24 24 25 28 27 27
10 6 4 6 6 8 4 7 13 7 5 2 3 9 9 6 1 3 5 7 10 12 14 16 18 19 22 25 24 21 20 21 21 22 22 24 22 22 23 24 23 24 24 23 23 24 26 30 36
13 12 6 7 7 9 8 7 2 5 3 4 3 7 8 5 1 3 5 7 9 11 13 15 16 18 22 24 23 20 20 19 18 19 20 19 20 22 24 25 22 22 22 22 26 28 28 28 32
6 7 3 8 10 9 10 14 9 5 6 7 7 8 9 7 3 1 4 6 8 9 12 14 16 18 22 22 23 22 21 21 18 17 16 17 17 20 20 20 19 18 16 17 18 23 26 26 25
6 10 4 4 5 11 8 14 13 5 2 8 10 14 12 9 5 2 2 4 6 8 11 13 16 19 19 20 23 23 23 22 20 17 18 17 17 18 18 18 15 11 9 5 6 10 10 17 16
6 6 5 4 7 9 12 9 2 4 6 5 7 12 14 13 8 7 4 3 5 7 9 12 15 16 17 18 20 20 21 21 21 21 19 19 19 19 22 20 15 13 9 3 6 1 4 9 11
5 10 11 7 10 8 9 14 3 3 6 7 10 8 12 12 9 6 3 2 3 5 7 10 11 13 16 17 16 16 18 19 20 22 23 23 25 26 27 27 22 19 18 14 12 13 11 7 5

GFSSGP_850_spd_141.txt.gz
Wind_Speed
5 7 7 7 7 7 8 6 5 3 7 6 4 11 19 23 17 7 9 10 9 6 5 6 5 4 3 3 3 4 5 6 7 9 8 7 6 7 9 9 8 8 8 8 10 9 8 7 6
3 6 6 11 8 10 6 7 2 2 7 5 5 5 14 15 18 15 11 12 11 9 6 3 3 2 2 2 4 5 6 7 8 10 11 10 10 9 8 9 10 10 9 9 10 10 10 8 7
3 6 13 6 10 9 7 6 4 5 6 5 6 11 8 12 14 13 11 12 12 11 4 5 3 2 2 3 5 6 7 8 9 11 12 13 13 13 12 10 11 11 11 9 10 11 11 9 9
4 6 8 9 13 10 11 6 2 7 6 3 7 13 12 7 10 12 13 12 12 13 8 5 4 2 3 5 6 8 9 10 11 12 13 14 14 15 14 14 12 11 12 12 11 11 11 11 11
6 10 11 11 3 4 5 5 3 2 5 6 4 14 14 13 13 12 6 12 13 12 8 6 4 3 3 5 8 10 11 12 12 13 14 14 17 16 16 16 16 14 13 12 13 13 13 13 12
12 7 10 11 9 6 5 3 2 3 6 5 10 17 10 11 11 11 9 8 7 7 4 2 2 2 4 6 7 9 10 11 12 13 14 15 17 18 19 18 17 16 15 13 13 14 15 15 14
13 9 14 9 8 7 6 1 3 0 10 8 5 14 10 8 10 12 9 6 4 2 2 2 2 3 5 7 7 9 11 11 11 12 14 16 17 18 20 20 19 18 17 16 15 15 16 16 16
11 7 14 10 7 7 5 2 2 5 9 3 8 6 12 8 8 10 6 4 1 1 3 4 5 5 6 8 9 10 10 11 13 13 14 16 18 20 21 23 23 21 20 19 17 16 17 18 18
6 9 12 6 6 11 7 3 2 1 6 13 10 14 11 8 6 5 8 8 5 3 3 5 7 8 8 8 8 8 9 10 11 13 14 15 17 18 19 23 25 24 24 23 21 19 19 19 19
9 10 7 10 7 3 5 7 4 7 5 14 10 11 10 8 6 7 7 9 10 7 6 5 6 7 7 8 7 7 8 10 12 12 12 13 14 16 19 21 22 25 26 25 25 23 21 22 19
1 9 7 6 3 4 2 5 1 7 5 10 10 7 8 7 7 8 9 10 11 10 8 8 8 9 9 9 9 9 10 12 13 14 14 14 14 15 16 17 19 21 24 27 25 27 26 24 19
9 0 2 5 2 3 3 5 3 9 8 6 8 6 6 7 8 8 9 9 10 10 8 8 9 10 11 12 12 13 13 14 14 16 17 16 16 16 17 16 18 19 20 21 25 28 27 24 22
8 3 4 5 6 7 5 7 1 5 5 6 7 7 6 6 6 7 7 8 9 11 11 11 12 13 13 14 15 16 16 18 18 19 20 21 20 19 18 19 18 18 17 21 24 27 27 29 28
2 5 7 7 9 7 8 8 10 6 7 7 7 7 6 6 5 5 7 8 9 10 12 14 15 16 17 18 18 19 20 21 21 21 23 23 24 24 23 21 16 14 15 18 22 28 21 27 28
7 10 11 12 9 6 10 9 10 9 9 9 8 7 6 6 5 6 7 8 10 10 13 15 16 18 19 19 20 20 21 21 21 24 25 25 26 26 24 25 22 16 13 22 19 22 27 28 33
9 11 12 11 7 6 7 5 12 13 12 10 9 8 7 5 5 6 8 8 10 11 13 15 17 18 20 22 23 22 22 24 21 21 22 23 26 27 28 27 24 19 22 19 17 21 21 25 27
10 12 11 10 6 1 10 3 16 13 10 10 9 9 7 4 3 4 6 7 8 10 11 13 14 16 18 20 21 22 23 21 21 24 20 21 26 26 28 29 27 26 26 22 19 18 19 22 26
9 8 8 11 10 7 11 13 14 14 13 11 11 9 7 4 1 2 5 6 8 10 11 13 16 18 20 20 21 21 21 20 22 22 21 25 25 26 26 26 28 27 26 24 20 19 21 23 23
10 11 13 12 4 4 13 14 12 18 13 13 12 10 8 5 3 1 4 6 7 8 10 13 16 18 20 19 21 22 22 23 22 21 23 23 24 25 24 23 23 23 22 22 23 22 21 23 24
11 13 14 12 7 6 15 15 12 16 13 12 12 11 8 6 4 0 2 4 6 8 10 13 15 18 19 19 22 20 22 23 23 22 20 22 22 22 24 24 24 22 22 23 23 22 22 24 24
13 13 12 11 8 12 20 17 20 14 13 11 12 8 7 6 4 2 1 3 5 7 10 13 15 17 17 21 18 20 22 20 20 20 23 21 23 25 26 26 25 25 23 22 22 21 21 24 25
14 12 9 11 11 10 4 11 12 13 11 12 13 11 11 8 4 2 2 3 5 7 9 11 13 14 15 18 19 21 21 23 22 23 23 24 23 24 22 24 25 24 24 27 26 19 21 24 27
9 2 7 10 12 14 16 10 6 9 11 15 13 13 11 8 5 4 2 2 4 7 9 11 13 14 16 18 20 21 20 20 22 21 23 24 21 22 21 20 22 22 22 24 24 28 30 28 23
4 8 8 9 10 12 17 16 12 6 5 8 7 11 10 8 6 4 2 2 4 7 9 11 12 13 15 19 19 21 21 22 22 22 23 22 22 21 20 21 24 22 24 27 28 26 28 33 34
12 9 7 10 8 11 3 5 8 1 7 3 3 7 9 8 7 5 3 2 4 6 9 10 12 13 16 18 18 19 21 21 21 21 21 23 22 22 23 25 24 23 21 22 24 29 28 25 27
15 13 8 10 10 10 9 6 3 7 9 11 7 6 11 10 8 7 5 2 2 5 7 9 11 12 15 16 16 18 20 20 19 19 20 20 21 22 23 24 22 21 20 19 20 24 26 31 30
9 11 14 15 15 12 12 17 5 9 8 9 7 8 11 12 10 8 6 2 1 4 6 8 10 12 13 14 15 16 22 22 21 20 19 20 20 21 20 22 19 16 14 14 14 16 22 26 28
10 6 6 7 5 11 11 14 5 7 4 6 9 10 11 11 11 9 6 3 0 2 4 7 9 12 12 13 13 15 18 19 20 21 20 19 18 20 20 20 16 13 10 7 7 11 12 9 15
8 10 7 5 10 11 13 9 2 2 1 7 7 9 10 12 12 10 8 3 5 3 3 6 8 11 12 12 13 14 15 15 16 20 22 20 19 21 23 20 17 15 12 9 8 7 6 7 11
14 16 15 7 9 11 12 12 2 5 5 7 11 15 10 10 12 10 11 9 6 4 3 4 7 8 10 11 12 14 16 16 15 17 19 21 23 23 23 24 22 20 20 16 14 14 12 9 7

GFSSGP_850_spd_147.txt.gz
Wind_Speed
10 8 8 6 4 4 5 6 4 6 9 29 30 25 18 19 7 8 9 22 21 15 13 12 10 8 6 4 2 2 2 2 2 2 2 2 3 4 4 4 4 3 4 4 6 7 8 8 7
8 6 3 4 3 1 7 6 12 9 19 33 33 32 26 19 23 20 22 19 11 13 11 10 8 6 4 3 1 1 2 3 4 4 4 5 5 6 6 6 7 7 6 6 7 9 10 10 9
8 8 3 3 3 4 3 5 9 10 11 21 12 23 11 6 20 12 18 18 13 10 8 7 6 4 3 2 3 4 5 6 6 6 6 7 8 8 8 9 9 9 10 9 8 10 12 11 11
10 3 4 1 8 5 6 5 11 9 12 21 25 9 13 7 10 13 15 12 8 9 8 7 6 5 4 4 5 6 6 7 7 8 8 9 9 10 10 10 11 11 11 12 12 12 13 13 13
11 6 1 4 9 2 5 5 8 7 14 26 25 12 13 17 17 14 14 10 5 7 7 7 6 6 5 6 6 7 7 7 7 8 9 9 10 10 12 13 12 13 14 14 14 15 15 15 15
6 3 2 5 6 4 5 6 8 15 27 27 24 16 12 11 10 11 9 5 4 5 8 7 6 5 5 6 6 7 8 8 8 8 8 9 10 10 11 13 15 15 16 17 17 17 18 18 18
9 2 6 7 6 3 5 5 10 20 18 13 20 8 14 9 10 11 9 7 6 7 6 5 5 5 6 6 8 8 8 7 8 7 8 8 10 11 12 13 15 17 19 19 21 20 20 21 21
7 4 7 6 6 1 7 5 17 15 9 19 15 8 8 12 7 6 7 7 6 5 4 3 3 3 5 5 7 8 10 9 8 9 9 10 9 10 12 14 16 18 20 22 22 23 23 24 24
11 3 6 6 8 5 7 9 21 23 27 22 16 24 21 16 15 8 5 5 4 4 4 5 4 5 6 6 6 7 8 9 10 9 9 10 10 9 10 10 13 16 19 23 25 24 25 26 27
5 3 6 1 4 2 3 11 13 12 24 24 29 27 26 23 15 7 4 6 5 6 6 6 5 5 6 6 6 7 8 9 11 12 12 11 11 11 11 11 12 13 15 20 23 26 28 28 30
6 6 4 5 10 11 3 11 16 25 11 21 25 23 19 15 9 5 4 5 7 9 6 7 7 8 8 9 9 9 10 11 12 14 16 15 14 14 14 14 12 11 14 14 17 22 26 28 30
2 6 4 7 5 6 5 10 11 26 19 23 22 20 17 14 10 7 4 3 5 7 8 9 10 10 11 12 12 12 13 14 14 15 17 19 20 19 19 17 17 16 15 15 16 17 21 25 27
2 6 3 8 5 3 3 3 12 22 22 21 19 16 13 11 11 7 4 3 4 6 8 9 10 11 12 12 13 14 15 16 17 18 19 22 23 24 24 23 21 20 18 19 20 21 22 22 24
6 8 10 5 10 9 5 10 12 20 22 20 18 17 17 15 11 8 3 5 3 7 9 11 13 14 15 16 17 18 19 20 20 20 21 24 24 24 26 26 27 26 24 22 23 25 25 23 21
4 6 8 12 12 6 11 2 8 28 23 23 19 16 14 13 10 9 7 3 2 6 8 10 12 14 15 17 19 21 22 23 23 23 23 24 25 27 29 29 28 28 29 28 27 29 27 25 23
4 3 4 9 15 7 12 5 7 29 28 25 22 19 18 13 11 11 8 2 4 6 8 11 12 13 15 19 21 22 24 24 25 25 25 22 25 28 31 32 30 29 31 31 31 30 30 27 24
4 6 8 12 18 7 5 4 5 27 27 27 25 24 20 14 12 7 4 1 4 6 7 9 11 14 16 18 21 23 25 26 26 27 26 27 27 29 30 31 32 33 31 30 31 30 28 29 27
7 9 7 5 7 6 8 5 14 29 27 26 29 27 23 20 12 4 2 2 3 5 7 8 10 12 15 17 20 23 24 26 27 28 29 30 32 33 34 34 35 34 33 32 31 31 30 27 28
11 3 5 2 2 4 7 8 13 23 23 27 33 31 30 23 12 4 2 3 4 5 7 9 11 13 17 21 24 26 28 29 28 30 31 34 36 37 38 39 39 38 36 34 33 34 33 31 26
5 3 6 5 7 6 8 8 7 19 22 31 31 34 32 24 13 7 4 4 5 6 8 9 11 15 18 21 23 24 25 25 26 27 29 31 34 35 36 35 36 36 35 30 27 27 30 33 23
5 4 5 7 6 2 7 4 7 7 21 28 32 36 32 26 18 13 8 6 6 7 9 9 11 15 18 20 21 21 21 25 28 31 33 35 34 32 29 28 27 28 28 29 28 25 22 26 28
6 6 6 7 6 5 4 5 5 8 15 16 24 33 33 26 21 16 12 9 7 7 8 8 10 14 18 20 20 21 23 26 27 28 30 32 30 27 24 24 24 26 27 28 27 23 23 24 25
6 8 2 4 4 3 2 4 6 4 9 13 19 35 34 31 26 20 15 11 7 6 6 8 8 14 18 19 19 20 21 23 24 27 30 34 31 26 25 25 26 24 25 24 22 22 21 20 23
2 3 2 3 2 5 6 8 5 11 14 13 21 32 30 24 21 20 14 8 7 5 6 6 7 12 16 16 18 19 20 22 24 27 29 33 30 28 25 28 25 24 23 23 23 21 21 21 22
4 6 1 2 1 7 10 10 14 4 13 20 22 29 31 31 26 17 11 15 11 8 8 6 7 12 14 15 16 17 19 20 23 25 27 31 29 29 27 29 27 23 22 21 21 19 19 18 22
7 7 5 5 4 3 4 7 1 7 21 26 28 34 33 26 20 14 16 18 12 11 10 7 9 10 11 14 15 17 18 19 20 22 24 27 27 28 27 26 25 22 21 20 18 16 17 18 18
5 11 9 6 2 0 4 2 6 10 11 19 23 31 30 26 24 23 23 17 14 12 10 6 8 9 10 13 14 14 16 18 18 19 19 22 25 27 27 24 23 21 20 18 16 14 14 13 5
6 3 6 1 4 5 5 7 5 8 8 8 13 23 26 26 27 24 22 18 15 13 10 6 7 8 9 11 11 14 15 15 15 15 17 18 21 24 25 25 23 22 21 18 18 16 14 12 9
5 10 3 5 5 4 0 5 5 8 10 10 13 24 27 31 30 29 24 21 16 12 9 8 7 7 7 9 10 12 12 12 13 14 17 17 18 20 22 24 25 24 23 20 19 19 17 17 17
5 6 6 4 4 3 3 5 6 8 10 14 12 14 22 25 36 32 26 22 15 12 11 9 7 6 6 7 8 10 11 10 11 14 17 17 17 19 19 21 24 25 25 24 23 22 23 23 24